UWE-3

Last updated on Mon Sep 15 2025 00:03:09 GMT+0000 (Coordinated Universal Time)

1 39446U 13066AG 25257.09657927 .00003130 00000+0 29366-3 0 9993 2 39446 97.8319 207.5674 0053053 156.6888 203.6755 14.93665204636311
UTC large
Height (km)
Speed (km/s)
/
Latitude / Longitude
Inclination (degrees)
Orbital Period (minutes)
Azimuth
Elevation
Range (km)
Doppler Factor

Next 0 passes for location: London (51.5072 / 0.1276)

Sorry there are no passes over London.